Wind_Speed
81 78 75 75 76 78 81 82 85 87 90 92 89 84 74 62 62 54 49 42 32 31 29 29 29 28 28 28 27 27 26 26 23 24 25 24 23 22 23 20 21 24 26
77 76 77 80 82 84 87 89 92 93 92 89 81 69 60 57 50 45 43 35 31 30 29 31 27 27 25 25 25 26 26 26 26 24 26 27 26 26 26 25 25 24 25
79 81 83 85 87 90 93 92 90 90 81 68 60 58 53 44 41 39 35 30 29 31 31 32 31 29 28 28 29 28 27 28 29 28 24 24 25 25 25 26 26 25 24
85 86 88 91 91 91 86 82 78 67 63 59 52 47 44 42 40 36 31 29 31 34 36 36 35 35 34 33 33 32 32 32 30 30 30 27 25 24 25 24 24 26 26
89 92 92 87 76 67 61 60 59 55 55 52 51 47 45 43 42 41 39 37 38 40 41 42 42 41 41 40 39 39 37 37 34 34 34 32 29 28 28 29 26 24 25
78 72 65 66 62 63 65 62 60 59 59 56 55 53 49 48 47 45 44 46 47 49 50 49 48 48 49 48 48 47 45 44 42 38 38 37 34 31 30 32 31 29 28
67 68 69 69 69 69 68 68 68 68 67 65 63 62 60 58 56 54 52 53 55 55 55 56 57 56 54 54 55 55 54 52 50 47 44 42 40 36 34 32 32 34 30
69 70 70 71 72 72 72 72 72 71 70 70 70 69 69 67 66 66 65 65 65 66 65 64 65 66 64 63 64 63 61 58 55 52 52 50 45 43 40 38 38 36 36
71 72 73 73 73 74 75 76 78 79 77 76 76 75 76 74 74 73 73 73 74 75 75 75 75 76 75 73 72 72 69 67 61 59 59 58 54 52 49 47 46 42 42
66 69 75 78 79 80 80 80 80 80 82 85 85 83 82 82 81 80 79 79 80 80 83 83 83 83 83 81 80 79 78 75 72 68 67 66 64 61 59 55 54 52 50
73 75 73 75 80 82 84 84 85 86 87 83 86 89 91 90 92 90 90 90 89 87 87 87 88 89 90 91 91 88 85 84 81 78 76 74 72 70 68 65 64 61 57
81 81 81 79 79 81 85 90 89 88 87 88 88 88 90 93 95 94 96 97 97 97 98 97 96 94 93 94 93 91 91 91 89 88 87 85 83 80 79 78 76 72 69
87 86 85 85 85 85 86 86 91 92 90 90 93 94 97 99 101 99 99 98 97 96 96 96 98 101 100 98 98 96 92 92 93 94 95 96 94 91 89 87 85 83 81
90 89 87 87 87 86 85 86 86 91 92 94 95 96 98 101 103 102 100 96 93 92 89 90 91 94 94 93 94 93 94 93 95 96 95 96 96 96 96 94 94 91 88
92 89 90 89 89 88 89 92 94 96 97 99 100 98 98 97 98 97 95 92 89 89 90 90 88 88 88 88 89 89 88 85 85 88 90 92 94 96 97 96 96 95 94
92 93 94 94 93 97 99 101 104 103 105 106 103 101 99 96 96 97 96 93 92 92 91 91 90 89 89 90 90 89 87 85 84 83 84 87 89 90 92 95 97 97 95
94 95 98 101 102 102 105 107 106 110 109 108 107 104 100 98 98 98 97 96 96 94 92 90 87 88 87 89 90 90 90 90 88 86 86 85 84 85 86 87 89 92 95
99 100 101 99 101 103 104 105 105 105 105 107 108 105 103 99 95 95 95 94 95 95 91 90 89 88 88 88 89 90 90 90 90 89 88 89 91 91 91 90 88 88 87
101 101 100 101 104 104 101 102 101 101 101 99 100 102 102 97 95 95 93 91 90 91 90 87 87 88 88 88 87 88 88 89 90 90 88 87 89 92 93 94 94 92 90
100 99 99 100 101 100 99 97 97 98 96 96 95 96 97 95 94 94 92 89 87 84 84 84 84 83 82 82 81 82 82 84 85 87 88 87 86 86 87 90 92 92 90
98 96 97 95 95 95 96 96 96 95 95 93 91 91 91 88 87 88 87 86 83 80 78 77 77 77 77 76 76 76 77 79 81 82 83 85 86 86 87 86 86 89 90
93 93 94 93 93 93 93 92 92 92 91 89 87 86 86 84 82 81 81 81 79 78 76 73 72 72 73 73 72 72 74 76 78 78 78 79 80 81 82 82 84 86 86
88 88 88 88 90 89 88 88 87 86 84 83 80 78 79 79 77 75 74 73 73 73 71 68 66 67 68 68 70 71 72 74 75 75 76 75 75 76 77 76 76 78 80
80 79 80 82 82 82 82 81 79 78 75 74 72 71 71 71 70 69 67 66 67 67 66 65 64 63 64 64 65 66 66 67 68 68 68 69 70 70 70 70 71 70 69
77 78 77 77 76 74 70 69 69 69 69 68 67 66 65 64 63 62 62 62 61 60 58 57 57 58 59 60 60 60 61 61 61 61 61 62 64 64 64 65 65 65 64
76 75 73 69 66 64 63 62 63 63 63 63 62 61 59 58 57 56 56 55 54 52 51 51 50 50 52 53 53 53 53 53 54 53 53 53 54 54 55 56 56 57 58
Wind_Direction
283 283 283 283 284 285 286 289 291 292 293 295 297 298 298 299 300 299 299 291 278 277 287 294 305 318 328 332 336 336 333 327 320 312 312 313 307 304 299 287 278 285 277
281 281 281 282 284 287 288 290 289 292 296 296 295 294 294 297 297 298 297 284 273 273 282 288 299 309 318 322 327 332 326 323 324 320 306 304 302 299 297 296 289 286 283
279 282 284 285 287 288 288 291 293 294 294 294 293 293 292 292 293 297 293 278 268 272 281 287 295 299 305 308 311 317 318 318 313 311 314 313 309 303 299 296 294 290 284
282 283 284 285 288 289 291 291 293 292 291 292 291 290 291 290 290 290 287 276 272 275 280 284 288 294 297 299 302 303 304 306 310 306 303 300 303 309 310 309 304 297 292
282 283 284 286 286 286 286 287 288 288 289 289 290 290 290 290 290 289 287 280 277 277 279 282 285 287 289 292 294 295 295 295 297 303 302 297 292 291 295 299 303 306 305
282 283 280 281 282 282 284 284 285 286 287 287 286 286 284 283 283 282 281 280 280 279 279 279 280 281 284 287 289 290 291 291 291 295 296 293 293 287 286 286 290 291 296
283 283 283 284 284 285 285 286 287 287 286 285 284 284 283 281 279 277 275 276 276 275 276 277 278 279 279 280 284 285 286 289 287 289 290 288 284 283 283 286 285 285 284
281 282 282 283 284 284 284 284 284 283 284 284 283 281 281 281 279 278 276 275 275 275 275 275 275 276 277 277 278 279 281 282 281 283 283 285 279 280 279 281 282 283 283
283 283 282 282 283 282 281 282 283 281 279 279 279 279 280 279 278 277 276 276 277 276 276 277 276 276 277 277 277 278 278 277 277 276 276 279 277 276 276 275 277 280 278
289 288 282 280 280 281 281 280 281 280 278 277 277 277 277 277 276 275 274 273 274 275 274 274 274 274 274 274 275 276 275 276 276 275 273 274 274 274 274 273 272 273 272
288 288 288 284 280 278 278 279 279 280 279 277 275 274 274 274 275 274 273 273 272 272 271 271 272 273 274 274 273 272 272 273 272 272 272 272 272 272 272 271 272 271 270
288 288 288 284 280 278 276 276 276 276 275 274 274 275 276 275 275 275 275 274 273 271 270 269 270 271 271 272 272 272 271 270 268 269 269 269 269 269 269 270 271 270 269
286 285 285 284 283 279 277 276 275 274 272 272 272 272 272 273 274 275 274 274 274 275 274 272 271 269 269 270 269 268 268 268 268 268 267 267 268 268 268 267 268 268 269
286 286 284 283 281 278 277 275 274 275 275 274 273 272 272 271 273 275 276 276 274 273 272 272 272 271 271 272 272 271 269 269 268 267 267 267 266 267 266 266 267 267 266
287 287 286 284 284 284 283 282 280 279 276 275 275 274 272 272 273 273 274 275 275 273 273 272 272 271 271 270 271 271 270 269 268 267 266 265 264 265 265 265 265 266 266
290 290 289 287 287 286 284 284 282 279 279 279 278 276 275 274 273 274 275 275 274 274 274 274 272 271 270 270 270 270 269 269 269 268 267 266 265 263 263 263 263 263 264
289 289 288 286 285 285 285 282 280 280 282 281 280 278 276 275 274 274 273 274 274 275 274 272 270 270 270 270 269 269 268 268 268 267 265 265 265 265 264 263 263 262 262
288 286 286 286 285 283 282 280 281 280 280 281 282 281 279 278 276 274 273 273 273 273 271 271 270 270 269 269 269 270 270 269 268 267 265 263 262 263 263 263 262 262 262
286 286 285 285 284 283 282 281 281 281 280 279 278 279 280 279 278 277 276 274 273 272 271 271 270 269 269 269 268 268 268 268 268 268 267 265 263 262 262 262 261 261 261
285 285 283 285 283 283 284 283 281 280 280 280 280 279 279 281 280 279 278 277 275 274 273 272 272 271 269 268 268 268 267 267 266 266 266 266 265 263 262 260 261 261 261
285 285 284 282 283 283 282 282 281 281 280 281 281 280 280 279 279 279 279 279 278 277 275 274 273 272 271 270 269 268 267 266 265 264 264 264 264 264 263 262 261 261 259
283 282 283 284 283 282 282 281 280 280 281 281 282 282 282 281 280 279 279 278 278 278 276 274 273 271 269 269 268 266 265 264 263 263 262 262 263 263 264 263 262 262 262
283 282 282 283 282 280 280 280 281 281 282 282 282 281 281 280 280 279 278 278 277 276 276 275 272 270 268 266 265 264 262 262 263 264 264 264 264 263 264 265 264 264 264
284 284 282 281 280 281 281 282 283 283 283 282 281 280 279 279 280 280 279 277 275 274 274 274 271 269 267 266 266 265 264 263 263 263 263 263 264 264 264 264 264 264 264
286 284 282 281 282 283 284 283 283 283 283 282 281 281 280 280 280 279 278 277 276 275 275 273 270 268 267 267 266 266 266 266 265 264 264 264 263 264 264 263 264 265 265
285 285 287 287 287 286 284 283 282 281 282 282 281 281 281 281 279 278 277 276 276 275 274 273 271 268 266 266 267 267 267 266 266 266 265 264 263 263 264 264 264 264 265
Height
10647 10643 10639 10635 10630 10626 10622 10618 10613 10607 10601 10594 10587 10581 10574 10568 10562 10556 10551 10546 10544 10544 10544 10543 10540 10536 10532 10527 10523 10519 10515 10513 10511 10509 10506 10504 10503 10500 10498 10497 10496 10495 10493
10631 10626 10622 10618 10614 10610 10605 10600 10594 10587 10583 10576 10570 10565 10560 10555 10550 10546 10541 10537 10535 10535 10535 10534 10533 10529 10527 10523 10520 10517 10513 10509 10506 10505 10502 10499 10497 10495 10492 10491 10490 10489 10487
10613 10610 10606 10601 10596 10591 10585 10579 10574 10569 10564 10559 10554 10550 10546 10543 10540 10536 10531 10529 10528 10527 10527 10525 10524 10522 10520 10517 10514 10511 10509 10505 10502 10499 10498 10495 10492 10489 10487 10484 10482 10481 10481
10596 10591 10585 10580 10576 10571 10565 10560 10555 10551 10548 10544 10541 10538 10535 10533 10530 10526 10523 10521 10520 10519 10518 10516 10515 10513 10511 10509 10507 10504 10501 10498 10496 10493 10491 10490 10487 10486 10482 10480 10478 10475 10474
10576 10570 10566 10561 10555 10551 10547 10544 10542 10539 10536 10533 10530 10527 10524 10523 10520 10518 10515 10512 10510 10509 10508 10506 10504 10503 10501 10499 10497 10494 10492 10489 10488 10486 10483 10481 10480 10479 10476 10474 10473 10471 10467
10555 10551 10547 10543 10539 10536 10533 10530 10528 10525 10523 10519 10517 10514 10513 10511 10508 10506 10504 10502 10500 10498 10496 10495 10492 10490 10489 10487 10485 10482 10481 10479 10477 10476 10473 10471 10470 10469 10468 10466 10465 10464 10461
10539 10536 10532 10528 10524 10521 10517 10513 10510 10507 10504 10503 10500 10498 10497 10496 10494 10492 10490 10487 10484 10483 10480 10478 10476 10475 10475 10473 10471 10469 10467 10466 10465 10464 10462 10460 10459 10459 10457 10456 10455 10454 10454
10522 10518 10514 10510 10507 10503 10499 10496 10492 10489 10486 10483 10481 10479 10478 10477 10475 10474 10472 10471 10468 10465 10463 10461 10458 10456 10457 10457 10455 10453 10452 10450 10450 10451 10447 10445 10445 10445 10446 10445 10444 10444 10442
10502 10498 10494 10490 10486 10483 10479 10475 10471 10468 10465 10462 10460 10456 10454 10453 10452 10451 10450 10448 10447 10444 10442 10442 10439 10435 10435 10436 10435 10433 10433 10432 10435 10433 10431 10429 10429 10430 10431 10432 10429 10431 10429
10482 10477 10471 10467 10463 10459 10455 10452 10449 10445 10440 10437 10434 10433 10431 10427 10427 10425 10423 10422 10419 10417 10417 10416 10416 10412 10410 10411 10412 10412 10410 10410 10413 10414 10413 10412 10411 10411 10413 10415 10415 10415 10414
10460 10455 10449 10443 10438 10434 10429 10425 10423 10419 10416 10412 10407 10404 10402 10400 10398 10397 10395 10393 10391 10388 10386 10385 10385 10385 10384 10384 10385 10386 10386 10386 10386 10388 10389 10389 10390 10391 10392 10394 10394 10396 10396
10436 10429 10423 10417 10412 10408 10403 10398 10396 10393 10388 10384 10379 10374 10370 10368 10367 10365 10362 10361 10361 10359 10356 10354 10352 10352 10353 10353 10354 10355 10357 10358 10358 10360 10360 10360 10363 10366 10367 10368 10372 10375 10376
10408 10402 10396 10390 10385 10382 10377 10372 10366 10363 10360 10354 10350 10346 10339 10333 10332 10333 10330 10328 10326 10327 10325 10323 10319 10318 10320 10320 10322 10323 10324 10326 10329 10330 10330 10331 10334 10336 10338 10340 10344 10346 10349
10378 10372 10367 10362 10355 10350 10346 10342 10337 10331 10327 10323 10318 10314 10309 10301 10297 10296 10296 10296 10296 10295 10295 10292 10290 10287 10286 10287 10287 10290 10294 10295 10296 10297 10300 10301 10302 10305 10306 10311 10314 10318 10321
10349 10342 10337 10331 10325 10319 10312 10307 10303 10298 10295 10290 10282 10280 10276 10271 10266 10266 10265 10263 10262 10262 10265 10264 10262 10259 10257 10256 10257 10257 10258 10262 10265 10265 10268 10269 10270 10273 10274 10278 10281 10286 10290
10317 10311 10305 10299 10292 10287 10281 10274 10265 10262 10255 10249 10247 10246 10243 10241 10238 10233 10229 10230 10231 10231 10232 10232 10231 10230 10229 10227 10225 10226 10228 10230 10233 10236 10236 10237 10238 10240 10242 10244 10248 10252 10257
10287 10279 10272 10266 10261 10254 10247 10241 10237 10223 10218 10215 10209 10206 10205 10206 10204 10203 10199 10199 10197 10197 10199 10200 10200 10199 10198 10197 10196 10195 10194 10196 10202 10205 10206 10206 10207 10208 10210 10212 10215 10218 10222
10256 10250 10244 10234 10226 10219 10211 10205 10200 10196 10192 10181 10167 10166 10164 10168 10171 10168 10165 10166 10165 10162 10165 10166 10167 10167 10167 10167 10165 10165 10164 10165 10165 10169 10174 10176 10176 10177 10178 10180 10182 10186 10190
10224 10217 10208 10200 10191 10184 10178 10171 10165 10160 10156 10152 10145 10133 10122 10128 10133 10130 10129 10131 10132 10131 10130 10133 10133 10134 10133 10133 10133 10134 10134 10134 10133 10134 10136 10141 10144 10145 10148 10148 10150 10154 10157
10188 10181 10174 10166 10156 10149 10144 10139 10132 10127 10122 10118 10114 10106 10100 10099 10099 10096 10094 10096 10098 10100 10099 10099 10098 10099 10100 10101 10103 10104 10104 10103 10103 10103 10103 10105 10108 10111 10115 10116 10118 10120 10126
10153 10147 10137 10131 10125 10121 10114 10107 10100 10094 10089 10086 10084 10077 10071 10073 10072 10066 10064 10062 10064 10067 10069 10070 10069 10068 10069 10069 10072 10073 10074 10073 10071 10072 10074 10075 10075 10078 10081 10085 10087 10088 10091
10121 10114 10105 10097 10092 10088 10082 10075 10069 10064 10060 10058 10056 10051 10044 10041 10042 10042 10038 10036 10035 10035 10037 10040 10041 10041 10041 10041 10042 10043 10043 10042 10041 10044 10046 10048 10050 10050 10052 10055 10057 10059 10062
10090 10083 10075 10069 10061 10055 10051 10046 10042 10037 10033 10030 10027 10024 10018 10014 10013 10012 10012 10012 10011 10008 10007 10009 10012 10012 10013 10014 10014 10014 10015 10016 10018 10020 10021 10022 10024 10026 10027 10028 10030 10032 10034
10059 10053 10046 10040 10034 10029 10025 10022 10016 10010 10007 10004 10000 9997 9994 9990 9988 9986 9986 9986 9985 9984 9984 9983 9985 9986 9985 9986 9988 9988 9990 9991 9993 9995 9998 9999 10000 10001 10002 10003 10006 10009 10011
10025 10021 10017 10013 10009 10005 10003 9996 9990 9984 9980 9977 9975 9972 9969 9968 9967 9965 9963 9962 9961 9961 9961 9962 9962 9962 9963 9964 9965 9966 9968 9969 9970 9972 9974 9977 9978 9979 9980 9982 9984 9986 9989
9998 9994 9991 9988 9985 9981 9976 9971 9965 9961 9958 9955 9952 9950 9949 9947 9946 9944 9943 9942 9941 9941 9941 9941 9942 9943 9942 9943 9945 9947 9948 9949 9950 9953 9954 9955 9957 9959 9960 9962 9964 9966 9968